This demonstration page uses our WeatherBlox Daily Observations layout. Learn more.

Left ArrowRight Arrow

Hourly Observations for June 19, 2018

Temp ( °F °C ) Dew Point ( °F °C ) Humidity (%) Winds ( mph kmh ) Pressure ( in mb ) Visibility ( mi km ) Precip ( " mm )
12:03 am 00:03 Partly Cloudy with Light Rain 73 22.8 70 21.1 90 90 ESE 8 13 29.91 1013 10 16 0.00 0.03
12:54 am 00:54 Clear 73 22.8 71 21.7 94 94 SE 6 9 29.87 1012 9 14 0.00 0.03
1:54 am 01:54 Clear 74 23.3 71 21.7 91 91 SE 7 11 29.85 1011 10 16 0.00 0.00
2:54 am 02:54 Clear 74 23.3 71 21.7 91 91 SE 6 9 29.88 1012 10 16 0.00 0.00
3:54 am 03:54 Clear 74 23.3 70 21.1 88 88 Calm 29.86 1011 10 16 0.00 0.00
4:54 am 04:54 Clear 74 23.3 71 21.7 91 91 WSW 3 6 29.89 1012 10 16 0.00 0.00
5:15 am 05:15 Partly Cloudy with Nearby Thunderstorms 73 22.8 71 21.7 94 94 Calm 29.85 1011 10 16 0.00 0.00
5:54 am 05:54 Cloudy with Nearby Thunderstorms 73 22.8 71 21.7 94 94 SW 3 6 29.89 1012 10 16 0.00 0.00
6:01 am 06:01 Cloudy with Thunderstorms 74 23.3 71 21.7 91 91 WNW 5 7 29.88 1012 9 14 0.00 0.03
6:24 am 06:24 Mostly Cloudy with Strong Thunderstorms 71 21.7 64 17.8 79 79 undefined N/A 29.88 1012 2 3 0.10 2.54
6:49 am 06:49 Cloudy with Thunderstorms 72 22 66 19 83 83 SW 13 20 29.88 1012 2 3 0.51 12.95
6:54 am 06:54 Mostly Cloudy with Thunderstorms 75 23.9 66 18.9 74 74 SW 15 24 29.87 1012 7 11 0.51 12.95
7:05 am 07:05 Mostly Cloudy with Nearby Thunderstorms 75 23.9 67 19.4 76 76 W 8 13 29.85 1011 10 16 0.00 0.03
7:33 am 07:33 Cloudy 73 22.8 66 18.9 79 79 E 3 6 29.91 1013 10 16 0.00 0.03
7:54 am 07:54 Mostly Cloudy 72 22.2 68 20 87 87 SSE 6 9 29.88 1012 10 16 0.00 0.03
8:54 am 08:54 Cloudy 76 24.4 69 20.6 79 79 Calm 29.93 1013 10 16 0.00 0.00
9:54 am 09:54 Mostly Cloudy 76 24.4 70 21.1 82 82 Calm 29.91 1013 10 16 0.00 0.00
10:54 am 10:54 Mostly Cloudy 78 25.6 70 21.1 76 76 NE 5 7 29.91 1013 10 16 0.00 0.00
11:12 am 11:12 Cloudy 78 25.6 71 21.7 79 79 NE 9 15 29.88 1012 10 16 0.00 0.00
11:34 am 11:34 Mostly Cloudy 79 26.1 70 21.1 74 74 ENE 6 9 29.88 1012 10 16 0.00 0.00
11:54 am 11:54 Mostly Cloudy 80 26.7 70 21.1 71 71 E 3 6 29.89 1012 10 16 0.00 0.00
12:14 pm 12:14 Partly Cloudy 82 27.8 71 21.7 69 69 VRB 3 6 29.85 1011 10 16 0.00 0.00
12:54 pm 12:54 Sunny 85 29.4 72 22.2 65 65 Calm 29.88 1012 10 16 0.00 0.00
1:12 pm 13:12 Mostly Cloudy 81 27.2 71 21.7 72 72 VRB 3 6 29.85 1011 10 16 0.00 0.00
1:54 pm 13:54 Cloudy 83 28.3 72 22.2 70 70 S 8 13 29.86 1011 10 16 0.00 0.00
2:01 pm 14:01 Cloudy 86 30 73 22.8 65 65 SSE 7 11 29.83 1010 10 16 0.00 0.00
2:54 pm 14:54 Sunny 87 30.6 71 21.7 59 59 S 7 11 29.85 1011 10 16 0.00 0.00
3:54 pm 15:54 Mostly Cloudy 87 30.6 71 21.7 59 59 WSW 3 6 29.85 1011 10 16 0.00 0.00
4:54 pm 16:54 Cloudy 82 27.8 73 22.8 74 74 NNE 16 26 29.81 1010 10 16 0.00 0.00
5:04 pm 17:04 Mostly Cloudy with Nearby Thunderstorms 80 26.7 73 22.8 79 79 NNE 15 24 29.80 1009 9 14 0.00 0.00
5:28 pm 17:28 Sunny with Thunderstorms 79 26.1 72 22.2 79 79 NNE 12 19 29.80 1009 7 11 0.00 0.00
5:54 pm 17:54 Partly Cloudy with Thunderstorms 78 25.6 73 22.8 85 85 NE 10 17 29.82 1010 6 10 0.00 0.03
6:31 pm 18:31 Cloudy with Strong Thunderstorms 72 22.2 69 20.6 91 91 SW 15 24 29.85 1011 3 4 0.08 2.03
6:42 pm 18:42 Cloudy with Strong Thunderstorms 71 21.7 69 20.6 94 94 SW 17 28 29.85 1011 2 3 0.24 6.10
6:54 pm 18:54 Mostly Cloudy with Strong Thunderstorms 71 21.7 68 20 90 90 W 12 19 29.87 1012 1 2 0.64 16.26
7:02 pm 19:02 Cloudy with Strong Thunderstorms 70 21.1 65 18.3 84 84 WNW 8 13 29.85 1011 1 1 0.35 8.89
7:10 pm 19:10 Cloudy with Strong Thunderstorms 68 20 64 17.8 87 87 NE 16 26 29.85 1011 1 2 0.54 13.72
7:15 pm 19:15 Cloudy with Strong Thunderstorms 68 20 64 17.8 87 87 E 17 28 29.85 1011 3 5 0.57 14.48
7:23 pm 19:23 Cloudy with Strong Thunderstorms 67 19.4 64 17.8 91 91 NE 20 31 29.85 1011 3 4 0.66 16.76
7:33 pm 19:33 Windy with Storms Likely 70 21.1 62 16.7 76 76 E 21 33 29.83 1010 5 8 0.69 17.53
7:54 pm 19:54 Mostly Cloudy with Thunderstorms 71 21.7 64 17.8 79 79 E 13 20 29.85 1011 10 16 0.69 17.53
8:02 pm 20:02 Mostly Cloudy with Nearby Thunderstorms 71 21.7 65 18.3 81 81 ESE 13 20 29.83 1010 9 14 0.01 0.25
8:09 pm 20:09 Mostly Cloudy with Thunderstorms 70 21.1 66 18.9 87 87 SE 13 20 29.80 1009 8 13 0.02 0.51
8:27 pm 20:27 Mostly Cloudy with Nearby Thunderstorms 73 22.8 69 20.6 87 87 SE 18 30 29.77 1008 9 14 0.03 0.76
8:45 pm 20:45 Partly Cloudy with Thunderstorms 73 22.8 68 20 84 84 undefined N/A 29.77 1008 9 14 0.04 1.02
8:54 pm 20:54 Partly Cloudy with Nearby Thunderstorms 71 21.7 66 18.9 84 84 WNW 21 33 29.82 1010 9 14 0.05 1.27
9:13 pm 21:13 Partly Cloudy with Light Rain 71 21.7 66 18.9 84 84 WNW 15 24 29.85 1011 9 14 0.02 0.51
9:54 pm 21:54 Mostly Cloudy with Thunderstorms 70 21.1 66 18.9 87 87 NW 12 19 29.93 1014 7 11 0.07 1.78
10:14 pm 22:14 Mostly Cloudy with Light Rain 70 21.1 66 18.9 87 87 N 7 11 29.94 1014 10 16 0.02 0.51
10:32 pm 22:32 Partly Cloudy with Thunderstorms 69 20.6 65 18.3 87 87 Calm 29.94 1014 9 14 0.03 0.76
10:54 pm 22:54 Mostly Cloudy with Thunderstorms 69 20.6 66 18.9 90 90 SW 10 17 29.93 1013 6 10 0.07 1.78
11:13 pm 23:13 Cloudy with Light Rain 69 20.6 66 18.9 90 90 WSW 15 24 29.91 1013 8 13 0.03 0.76
11:54 pm 23:54 Cloudy with Rain 69 20.6 65 18.3 87 87 W 16 26 29.88 1012 6 10 0.13 3.30

Powered by AerisWeather